User: anonymous   Login
Location: Unspecified
(0.0000°N, 0.0000°E)
Time: 01:11:16
(UTC+00:00)
Language:

STARLINK-5649 - Orbit

View from above orbital plane
View from above orbital plane
View from above satellite
View from above satellite

Ground track
Ground track

The orbit is defined by the following mean orbital elements,

1 55354U          26145.56618593 +.00000000 +00000-0 +13805-3 0 00006
2 55354  43.0020 228.9955 0001257 266.9790  93.0918 15.27566177    04
Epoch (UTC): 25 May 2026 13:35:18
Eccentricity: 0.0001257
inclination: 43.0020°
perigee height: 482 km
apogee height: 484 km
right ascension of ascending node: 228.9955°
argument of perigee: 266.9790°
revolutions per day: 15.27566177
mean anomaly at epoch: 93.0918°

The dashed part of the orbit path shows where the satellite is in the earth's shadow,  

DLR